| time (UTC) | temp F | wind direction | speed MPH | gust MPH | rain 1hr in | rain 24hr in | rain mn in | humidity % | barometer mb |
| 20260505234551 | 68 | 178 | 2.0 | 12.0 | 0.00 | 0.23 | 0.23 | 50 | 1014.5 |
| 20260505233046 | 66 | 207 | 4.0 | 11.0 | 0.00 | 0.23 | 0.23 | 53 | 1014.6 |
| 20260505231601 | 66 | 267 | 3.0 | 11.0 | 0.00 | 0.23 | 0.23 | 51 | 1014.6 |
| 20260505230050 | 69 | 235 | 5.0 | 16.0 | 0.00 | 0.23 | 0.23 | 47 | 1014.7 |
| 20260505224544 | 68 | 266 | 3.0 | 8.0 | 0.00 | 0.23 | 0.23 | 49 | 1014.8 |
| 20260505223043 | 69 | 182 | 6.0 | 11.0 | 0.00 | 0.23 | 0.23 | 49 | 1014.8 |
| 20260505221542 | 69 | 201 | 4.0 | 12.0 | 0.00 | 0.23 | 0.23 | 47 | 1014.9 |
| 20260505220042 | 69 | 220 | 4.0 | 14.0 | 0.00 | 0.23 | 0.23 | 52 | 1015.0 |
| 20260505214602 | 67 | 236 | 4.0 | 14.0 | 0.00 | 0.23 | 0.23 | 54 | 1015.1 |
| 20260505213040 | 68 | 226 | 2.0 | 10.0 | 0.00 | 0.23 | 0.23 | 51 | 1015.1 |
| 20260505211539 | 69 | 249 | 4.0 | 11.0 | 0.00 | 0.23 | 0.23 | 53 | 1015.3 |
| 20260505210039 | 68 | 230 | 6.0 | 14.0 | 0.00 | 0.23 | 0.23 | 51 | 1015.4 |
| 20260505204536 | 68 | 180 | 4.0 | 11.0 | 0.00 | 0.23 | 0.23 | 53 | 1015.4 |
| 20260505203034 | 66 | 174 | 4.0 | 10.0 | 0.00 | 0.23 | 0.23 | 55 | 1015.6 |
| 20260505201531 | 66 | 182 | 4.0 | 12.0 | 0.00 | 0.23 | 0.23 | 58 | 1015.5 |
| 20260505200040 | 66 | 222 | 3.0 | 9.0 | 0.00 | 0.23 | 0.23 | 57 | 1015.6 |
| 20260505194527 | 64 | 256 | 4.0 | 10.0 | 0.00 | 0.23 | 0.23 | 60 | 1015.8 |
| 20260505193023 | 62 | 230 | 3.0 | 10.0 | 0.00 | 0.23 | 0.23 | 65 | 1016.0 |
| 20260505191521 | 62 | 278 | 3.0 | 9.0 | 0.00 | 0.23 | 0.23 | 70 | 1016.0 |
| 20260505190026 | 62 | 203 | 3.0 | 8.0 | 0.00 | 0.23 | 0.23 | 71 | 1016.0 |
| 20260505184520 | 61 | 259 | 4.0 | 9.0 | 0.00 | 0.23 | 0.23 | 75 | 1015.9 |
| 20260505183021 | 60 | 149 | 1.0 | 5.0 | 0.00 | 0.23 | 0.23 | 80 | 1015.9 |
| 20260505181512 | 59 | 223 | 0.0 | 2.0 | 0.00 | 0.23 | 0.23 | 86 | 1016.1 |
| 20260505180015 | 57 | 11 | 0.0 | 0.0 | 0.00 | 0.23 | 0.23 | 85 | 1016.0 |
| 20260505174511 | 57 | 292 | 1.0 | 5.0 | 0.00 | 0.23 | 0.23 | 86 | 1015.9 |
| 20260505173009 | 57 | 159 | 1.0 | 7.0 | 0.00 | 0.23 | 0.23 | 86 | 1015.6 |
| 20260505171509 | 57 | 193 | 2.0 | 7.0 | 0.00 | 0.23 | 0.23 | 86 | 1015.5 |
| 20260505170008 | 57 | 205 | 1.0 | 7.0 | 0.00 | 0.23 | 0.23 | 87 | 1015.3 |
| 20260505164504 | 57 | 139 | 0.0 | 4.0 | 0.00 | 0.23 | 0.23 | 88 | 1015.3 |
| 20260505163009 | 57 | 119 | 1.0 | 3.0 | 0.00 | 0.23 | 0.23 | 90 | 1015.3 |
| 20260505161502 | 55 | 200 | 0.0 | 4.0 | 0.00 | 0.23 | 0.23 | 92 | 1015.2 |
| 20260505153102 | 54 | 21 | 0.0 | 0.0 | 0.08 | 0.23 | 0.23 | 91 | 1015.1 |
| 20260505151604 | 54 | 322 | 0.0 | 4.0 | 0.08 | 0.23 | 0.23 | 91 | 1014.9 |
| 20260505140107 | 55 | 163 | 0.0 | 4.0 | 0.04 | 0.15 | 0.15 | 91 | 1014.3 |
| 20260505124536 | 55 | 200 | 0.0 | 2.0 | 0.01 | 0.11 | 0.11 | 91 | 1013.5 |
| 20260505123032 | 55 | 226 | 0.0 | 2.0 | 0.01 | 0.11 | 0.11 | 91 | 1013.4 |
| 20260505121537 | 55 | 199 | 0.0 | 2.0 | 0.00 | 0.10 | 0.10 | 91 | 1013.4 |
| 20260505120042 | 55 | 199 | 0.0 | 4.0 | 0.00 | 0.10 | 0.10 | 90 | 1013.4 |
| 20260505114532 | 56 | 195 | 0.0 | 2.0 | 0.00 | 0.10 | 0.10 | 90 | 1013.4 |
| 20260505113028 | 56 | 156 | 0.0 | 4.0 | 0.01 | 0.10 | 0.10 | 90 | 1013.4 |
| 20260505111527 | 56 | 177 | 0.0 | 6.0 | 0.02 | 0.10 | 0.10 | 90 | 1013.4 |
| 20260505101538 | 55 | 168 | 1.0 | 5.0 | 0.02 | 0.08 | 0.08 | 88 | 1013.5 |
| 20260505100023 | 55 | 149 | 2.0 | 7.0 | 0.04 | 0.08 | 0.08 | 88 | 1013.7 |
| 20260505094531 | 55 | 170 | 2.0 | 5.0 | 0.06 | 0.08 | 0.08 | 87 | 1013.6 |
| 20260505093018 | 55 | 107 | 0.0 | 5.0 | 0.08 | 0.08 | 0.08 | 86 | 1013.9 |
| 20260505091515 | 56 | 149 | 1.0 | 5.0 | 0.05 | 0.05 | 0.05 | 86 | 1014.1 |
| 20260505090019 | 56 | 188 | 0.0 | 2.0 | 0.04 | 0.04 | 0.04 | 85 | 1014.0 |
| 20260505084512 | 56 | 115 | 1.0 | 6.0 | 0.02 | 0.02 | 0.02 | 84 | 1014.2 |
| 20260505083017 | 57 | 122 | 2.0 | 10.0 | 0.00 | 0.00 | 0.00 | 83 | 1014.3 |
| 20260505081507 | 57 | 161 | 4.0 | 9.0 | 0.00 | 0.00 | 0.00 | 82 | 1014.5 |
| 20260505080006 | 58 | 192 | 0.0 | 8.0 | 0.00 | 0.00 | 0.00 | 81 | 1014.5 |
| 20260505074600 | 58 | 177 | 4.0 | 8.0 | 0.00 | 0.00 | 0.00 | 78 | 1014.6 |
| 20260505073129 | 59 | 197 | 4.0 | 7.0 | 0.00 | 0.00 | 0.00 | 77 | 1014.5 |
| 20260505071602 | 59 | 179 | 2.0 | 6.0 | 0.00 | 0.00 | 0.00 | 76 | 1014.6 |
| 20260505070100 | 59 | 154 | 1.0 | 7.0 | 0.00 | 0.00 | 0.00 | 75 | 1014.7 |
| 20260505064553 | 59 | 162 | 2.0 | 7.0 | 0.00 | 0.00 | 0.00 | 75 | 1014.8 |
| 20260505063052 | 59 | 168 | 2.0 | 7.0 | 0.00 | 0.00 | 0.00 | 75 | 1014.8 |
| 20260505061552 | 59 | 165 | 2.0 | 7.0 | 0.00 | 0.00 | 0.00 | 75 | 1015.0 |
| 20260505060053 | 60 | 161 | 3.0 | 7.0 | 0.00 | 0.00 | 0.00 | 74 | 1015.1 |
| 20260505054551 | 60 | 126 | 4.0 | 8.0 | 0.00 | 0.00 | 0.00 | 74 | 1015.2 |
| 20260505053051 | 60 | 149 | 3.0 | 7.0 | 0.00 | 0.00 | 0.00 | 73 | 1015.4 |
| 20260505051602 | 60 | 170 | 4.0 | 7.0 | 0.00 | 0.00 | 0.00 | 72 | 1015.6 |
| 20260505041549 | 60 | 178 | 3.0 | 6.0 | 0.00 | 0.00 | 0.00 | 72 | 1015.6 |
| 20260505040047 | 60 | 204 | 0.0 | 5.0 | 0.00 | 0.00 | 0.00 | 71 | 1015.5 |
| 20260505034549 | 60 | 212 | 1.0 | 7.0 | 0.00 | 0.00 | 0.00 | 71 | 1015.4 |
| 20260505033047 | 61 | 210 | 0.0 | 6.0 | 0.00 | 0.00 | 0.00 | 70 | 1015.4 |
| 20260505031552 | 61 | 171 | 0.0 | 6.0 | 0.00 | 0.00 | 0.00 | 70 | 1015.1 |
| 20260505030045 | 61 | 238 | 2.0 | 6.0 | 0.00 | 0.00 | 0.00 | 69 | 1015.1 |
| 20260505024544 | 61 | 185 | 1.0 | 8.0 | 0.00 | 0.00 | 0.00 | 68 | 1014.9 |
| 20260505023050 | 62 | 193 | 4.0 | 10.0 | 0.00 | 0.00 | 0.00 | 67 | 1014.9 |
| 20260505021544 | 62 | 168 | 2.0 | 9.0 | 0.00 | 0.00 | 0.00 | 66 | 1014.8 |
| 20260505020043 | 63 | 163 | 3.0 | 8.0 | 0.00 | 0.00 | 0.00 | 64 | 1014.9 |
| 20260505014542 | 64 | 228 | 3.0 | 9.0 | 0.00 | 0.00 | 0.00 | 62 | 1014.7 |
| 20260505013058 | 65 | 213 | 3.0 | 11.0 | 0.00 | 0.00 | 0.00 | 61 | 1014.9 |
| 20260505011541 | 65 | 243 | 0.0 | 8.0 | 0.00 | 0.00 | 0.00 | 60 | 1014.8 |
| 20260505010040 | 66 | 182 | 5.0 | 12.0 | 0.00 | 0.00 | 0.00 | 58 | 1014.9 |
| 20260505004540 | 67 | 139 | 5.0 | 11.0 | 0.00 | 0.00 | 0.00 | 56 | 1015.0 |
| 20260505003039 | 68 | 186 | 5.0 | 11.0 | 0.00 | 0.00 | 0.00 | 54 | 1014.8 |
| 20260505001538 | 69 | 253 | 4.0 | 11.0 | 0.00 | 0.00 | 0.00 | 51 | 1014.8 |
| 20260505000051 | 69 | 225 | 3.0 | 9.0 | 0.00 | 0.00 | 0.00 | 51 | 1014.7 |